Regional Weather Roundup
Issued by NWS

Home | Current Version | Previous Version | Graphics & Text | Print | Product List | Glossary On
Versions: 1 2 3 4 5 6 7 8 9 10 11 12 13 14 15 16 17 18 19 20 21 22 23 24 25 26 27 28 29 30 31 32 33 34 35 36 37 38 39 40 41 42 43 44 45 46 47 48 49 50
000
ASUS43 KDMX 311307
RWRIA

WEATHER ROUNDUP FOR IOWA
NATIONAL WEATHER SERVICE DES MOINES IA
800 AM CDT FRI JUL 31 2015

NOTE: "FAIR" INDICATES FEW OR NO CLOUDS BELOW 12,000 FEET WITH NO
SIGNIFICANT WEATHER AND/OR OBSTRUCTIONS TO VISIBILITY.

* - THESE STATIONS ARE NOT NWS STATIONS...THUS NOT UNDER NWS
QUALITY CONTROL.  THEY ALSO DO NOT REPORT WEATHER SUCH
AS PRECIPITATION OR FOG.

IAZ001>003-012>014-020>022-031>034-043>046-311400-
   NORTHWEST IOWA

CITY           SKY/WX    TMP DP  RH WIND       PRES   REMARKS
CARROLL *      MOSUNNY   70  66  88 CALM      30.15S
CHEROKEE *     SUNNY     68  68 100 CALM      30.15R
DENISON *      SUNNY     68  66  94 CALM      30.15S
LE MARS *      MOSUNNY   68  66  94 CALM      30.16R
ORANGE CITY *  SUNNY     70  64  83 CALM      30.16R
SHELDON *      SUNNY     66  63  88 CALM      30.15R
SIOUX CITY     SUNNY     68  64  87 S5        30.15R
SPENCER        MOSUNNY   66  61  84 W3        30.16R
STORM LAKE *   SUNNY     72  66  83 NW5       30.17R
$$

IAZ055>058-069>071-079>083-090>094-311400-
   SOUTHWEST IOWA

CITY           SKY/WX    TMP DP  RH WIND       PRES   REMARKS
ATLANTIC *     SUNNY     70  66  88 CALM      30.16R
AUDUBON *      SUNNY     70  66  88 N10       30.18R
CLARINDA *     SUNNY     68  66  94 S3        30.18R
COUNCIL BLFS * SUNNY     72  64  78 SW5       30.15R
CRESTON *      PTSUNNY   70  64  83 CALM      30.17R
HARLAN  *      SUNNY     68  68 100 CALM      30.19R
LAMONI         PTSUNNY   72  62  71 SW10      30.15S
RED OAK *      SUNNY     72  68  88 S6        30.15R
SHENANDOAH *   SUNNY     70  68  94 S7        30.16S
$$

IAZ047>049-059>061-072>074-084-311400-
   CENTRAL IOWA

CITY           SKY/WX    TMP DP  RH WIND       PRES   REMARKS
AMES           PTSUNNY   68  65  90 W3        30.13R
ANKENY *       SUNNY     73  66  78 MISG      30.13F
CHARITON *     PTSUNNY   72  64  78 W7        30.15R
DES MOINES     MOSUNNY   74  64  71 N5        30.14R
GRINNELL*      SUNNY     70  64  83 W6        30.14R
KNOXVILLE *    SUNNY     72  64  78 NW8       30.14R
MARSHALLTOWN     N/A     68  65  90 W7        30.12R
PELLA *        SUNNY     73  70  88 N6        30.15R
PERRY *          N/A     70  68  94 CALM      30.14S
$$

IAZ004>006-015-016-023>025-035-036-311400-
   NORTH CENTRAL IOWA

CITY           SKY/WX    TMP DP  RH WIND       PRES   REMARKS
ALGONA *       PTSUNNY   72  64  78 CALM      30.14S
CLARION *      PTSUNNY   68  64  88 CALM      30.14R
ESTHERVILLE    MOSUNNY   67  62  84 NW5       30.15R
FORT DODGE *   MOSUNNY   66  63  88 SW3       30.15S
MASON CITY     SUNNY     69  62  78 NW8       30.14R
FOREST CITY *  SUNNY     68  63  83 CALM      30.13S
IOWA FALLS *   PTSUNNY   68  64  88 W3        30.14S
$$

IAZ007>011-017>019-026>030-037>042-050>054-066-311400-
   NORTHEAST IOWA

CITY           SKY/WX    TMP DP  RH WIND       PRES   REMARKS
CHARLES CITY * SUNNY     68  64  88 VRB7      30.12R
CLINTON *      SUNNY     70  66  88 W7        30.10R
DECORAH *      SUNNY     68  63  83 NW7       30.08S
DUBUQUE        SUNNY     70  65  84 W7        30.08R
MONTICELLO *   SUNNY     70  66  88 W6        30.09R
OELWEIN *        N/A    N/A N/A N/A MISG        N/A
WATERLOO       SUNNY     71  65  81 NW3       30.10R
$$

IAZ064-065-067-068-078-311400-
   EAST CENTRAL IOWA

CITY           SKY/WX    TMP DP  RH WIND       PRES   REMARKS
DAVENPORT      SUNNY     71  66  84 W8        30.09R
MT. PLEASANT * SUNNY     75  63  64 W6        30.12R
MUSCATINE *    SUNNY     73  66  78 NW13      30.09R
QUAD CITIES    SUNNY     74  66  76 W8        30.08R
$$

IAZ062-063-075>077-085>089-095>099-311400-
   SOUTHEAST IOWA

CITY           SKY/WX    TMP DP  RH WIND       PRES   REMARKS
BURLINGTON     SUNNY     73  66  78 NW5       30.11R
FAIRFIELD *    SUNNY     72  64  78 W9        30.13R
FORT MADISON * SUNNY     73  64  73 W9        30.12S
KEOKUK *       SUNNY     75  66  73 W8        30.11S
OSKALOOSA *      N/A     70  66  88 NW6       30.14R
CENTERVILLE *  MOSUNNY   72  66  83 W7        30.16R
OTTUMWA        MOSUNNY   72  66  81 W9        30.12R
WASHINGTON *   SUNNY     72  66  83 W8        30.13R
$$

ABBREVIATIONS USED IN REMARKS
   TC - TEMPERATURES IN CELSIUS
  WCI - WIND CHILL INDEX
   HX - HEAT INDEX
  VSB - VISIBILITY
$$



USA.gov is the U.S. government's official web portal to all federal, state and local government web resources and services.